User: anonymous   Login
Location: Saint-Maurice-d�Ard�che
(44.5216°N, 4.4002°E)
Time: 15:01:42
(UTC+00:00)
Language:

Landsat 7 - Orbit

View from above orbital plane
View from above orbital plane
View from above satellite
View from above satellite

Ground track
Ground track

The orbit data is extracted from the following two-line orbital elements,

1 25682U 99020A   21164.11624911  .00000024  00000-0  14962-4 0  9994
2 25682  98.0313 221.1356 0001471  99.4092 260.7287 14.57198196178767
Epoch (UTC): 13 June 2021 02:47:23
Eccentricity: 0.0001471
inclination: 98.0313°
perigee height: 701 km
apogee height: 703 km
right ascension of ascending node: 221.1356°
argument of perigee: 99.4092°
revolutions per day: 14.57198196
mean anomaly at epoch: 260.7287°
orbit number at epoch: 17876

The dashed part of the orbit path shows where the satellite is in the earth's shadow,  

DLR